Location: Unspecified
(51.0950°N, 12.9690°E)
Time: 06:07:37
(UTC+00:00)

NANOSAT C BR1 - Pass Details

Date: 02 May 2024
Orbit: 556 x 561 km, 98.1° (Epoch: 19 May)

Event Time Altitude Azimuth Distance (km) Brightness Sun altitude
Rises 02:04:19 0° 27° (NNE) 2,774 ? -12.8°
Reaches altitude 10° 02:07:00 10° 46° (NE) 1,871 ? -12.5°
Maximum altitude 02:09:54 19° 92° (E) 1,388 ? -12.2°
Drops below altitude 10° 02:12:47 10° 138° (SE) 1,860 ? -11.9°
Sets 02:15:26 0° 156° (SSE) 2,750 ? -11.6°
